HADYOS Weather Reports


Display with metric or nautical units.
time (UTC)temp
F
wind
direction
speed
MPH
gust
MPH
rain 1hr
in
rain 24hr
in
rain mn
in
humidity
%
barometer
mb
20260507060004 64 61 1.0 7.0 0.00 0.00 0.00 53 1019.6
20260507055405 63 55 1.0 7.0 0.00 0.00 0.00 52 1019.5
20260507054504 63 47 1.0 4.0 0.00 0.00 0.00 52 1019.4
20260507053605 63 42 1.0 5.0 0.00 0.00 0.00 53 1019.4
20260507052703 62 45 1.0 5.0 0.00 0.00 0.00 53 1019.5
20260507051805 62 42 1.0 5.0 0.00 0.00 0.00 51 1019.4
20260507050905 63 34 0.0 5.0 0.00 0.00 0.00 53 1019.4
20260507050004 62 354 0.0 2.0 0.00 0.00 0.00 54 1019.3
20260507045405 61 333 0.0 1.0 0.00 0.00 0.00 55 1019.2
20260507044503 60 334 1.0 4.0 0.00 0.00 0.00 54 1019.2
20260507043605 60 319 0.0 3.0 0.00 0.00 0.00 55 1019.2
20260507042703 60 0 0.0 0.0 0.00 0.00 0.00 57 1019.2
20260507041805 59 0 0.0 0.0 0.00 0.00 0.00 59 1019.1
20260507040905 58 334 0.0 1.0 0.00 0.00 0.00 61 1019.1
20260507040004 57 0 0.0 0.0 0.00 0.00 0.00 62 1019.0
20260507035405 56 0 0.0 0.0 0.00 0.00 0.00 64 1019.0
20260507034503 55 0 0.0 0.0 0.00 0.00 0.00 67 1018.9
20260507033605 55 323 0.0 3.0 0.00 0.00 0.00 68 1018.8
20260507032703 54 322 0.0 4.0 0.00 0.00 0.00 69 1018.7
20260507031805 54 322 0.0 3.0 0.00 0.00 0.00 69 1018.6
20260507030903 53 321 1.0 4.0 0.00 0.00 0.00 69 1018.6
20260507030004 53 323 0.0 3.0 0.00 0.00 0.00 70 1018.6
20260507025403 53 327 0.0 2.0 0.00 0.00 0.00 70 1018.6
20260507024717 53 0 0.0 0.0 0.00 0.00 0.00 70 1018.6
20260507023603 53 0 0.0 0.0 0.00 0.00 0.00 70 1018.5
20260507022705 54 0 0.0 0.0 0.00 0.00 0.00 69 1018.5
20260507021805 54 0 0.0 0.0 0.00 0.00 0.00 69 1018.5
20260507020905 54 0 0.0 0.0 0.00 0.00 0.00 68 1018.5
20260507020005 54 0 0.0 0.0 0.00 0.00 0.00 68 1018.4
20260507015403 54 0 0.0 0.0 0.00 0.00 0.00 68 1018.4
20260507014503 54 0 0.0 0.0 0.00 0.00 0.00 68 1018.4
20260507013604 54 0 0.0 0.0 0.00 0.00 0.00 68 1018.5
20260507012705 54 0 0.0 0.0 0.00 0.00 0.00 68 1018.4
20260507011805 54 0 0.0 0.0 0.00 0.00 0.00 68 1018.4
20260507010905 54 0 0.0 0.0 0.00 0.00 0.00 68 1018.5
20260507010005 54 0 0.0 0.0 0.00 0.00 0.00 67 1018.5
20260507005403 55 0 0.0 0.0 0.00 0.00 0.00 67 1018.5
20260507004505 55 0 0.0 0.0 0.00 0.00 0.00 66 1018.5
20260507003605 55 0 0.0 0.0 0.00 0.00 0.00 65 1018.6
20260507002705 55 0 0.0 0.0 0.00 0.00 0.00 65 1018.6
20260507001805 55 324 0.0 4.0 0.00 0.00 0.00 64 1018.6
20260507001118 55 313 0.0 4.0 0.00 0.00 0.00 65 1018.5
20260507000005 54 360 0.0 2.0 0.00 0.00 0.00 66 1018.5
20260506235405 54 0 0.0 0.0 0.00 0.00 0.00 67 1018.5
20260506234505 54 0 0.0 0.0 0.00 0.00 0.00 68 1018.7
20260506233817 54 307 0.0 1.0 0.00 0.00 0.00 69 1018.6
20260506232705 54 295 0.0 4.0 0.00 0.00 0.00 70 1018.6
20260506231803 54 300 0.0 8.0 0.00 0.00 0.00 73 1018.5
20260506230905 54 293 1.0 6.0 0.00 0.00 0.00 73 1018.7
20260506230004 54 0 0.0 0.0 0.00 0.00 0.00 75 1018.7
20260506225618 54 0 0.0 0.0 0.00 0.00 0.00 75 1018.7
20260506224503 55 0 0.0 0.0 0.00 0.00 0.00 75 1018.5
20260506223605 55 273 0.0 5.0 0.00 0.00 0.00 75 1018.5
20260506222703 55 234 0.0 6.0 0.00 0.00 0.00 76 1018.7
20260506221803 55 214 0.0 4.0 0.00 0.00 0.00 76 1018.7
20260506220905 55 116 0.0 3.0 0.00 0.00 0.00 77 1018.7
20260506220006 55 114 0.0 3.0 0.00 0.00 0.00 77 1018.7
20260506215404 55 110 0.0 2.0 0.00 0.00 0.00 77 1018.8
20260506214505 55 132 0.0 4.0 0.00 0.00 0.00 77 1018.9
20260506213603 55 148 0.0 4.0 0.00 0.00 0.00 77 1018.9
20260506212703 55 80 0.0 3.0 0.00 0.00 0.00 77 1019.0
20260506211805 55 24 0.0 3.0 0.00 0.00 0.00 77 1018.9
20260506210906 55 77 0.0 4.0 0.00 0.00 0.00 77 1019.0
20260506210012 56 103 1.0 8.0 0.00 0.00 0.00 77 1019.0
20260506205404 56 100 1.0 7.0 0.00 0.00 0.00 77 1018.9
20260506204505 56 93 1.0 7.0 0.00 0.00 0.00 76 1018.8
20260506203603 56 102 0.0 3.0 0.00 0.00 0.00 76 1018.8
20260506202916 56 80 0.0 8.0 0.00 0.00 0.00 75 1018.8
20260506202013 56 82 0.0 6.0 0.00 0.00 0.00 75 1018.9
20260506200905 56 290 0.0 8.0 0.00 0.00 0.00 74 1018.8
20260506200004 56 293 1.0 7.0 0.00 0.00 0.00 74 1018.8
20260506195405 56 281 2.0 8.0 0.00 0.00 0.00 74 1018.9
20260506194505 56 306 1.0 8.0 0.00 0.00 0.00 74 1018.9
20260506193605 56 323 2.0 7.0 0.00 0.00 0.00 75 1019.0
20260506192703 57 62 0.0 3.0 0.00 0.00 0.00 75 1019.0
20260506191805 57 101 0.0 4.0 0.00 0.00 0.00 75 1019.1
20260506191116 57 301 0.0 4.0 0.00 0.00 0.00 74 1019.1
20260506190004 57 299 1.0 6.0 0.00 0.00 0.00 74 1019.1
20260506185403 57 315 1.0 6.0 0.00 0.00 0.00 73 1019.1
20260506184504 57 292 1.0 7.0 0.00 0.00 0.00 73 1019.1
20260506183604 58 334 1.0 8.0 0.00 0.00 0.00 72 1019.0
20260506182703 58 348 3.0 8.0 0.00 0.00 0.00 72 1019.0
20260506182014 58 338 1.0 7.0 0.00 0.00 0.00 72 1018.9
20260506181117 58 338 2.0 8.0 0.00 0.00 0.00 71 1018.8
20260506180006 58 328 2.0 10.0 0.00 0.00 0.00 71 1018.6
20260506175616 58 318 2.0 10.0 0.00 0.00 0.00 71 1018.7
20260506174505 58 342 3.0 8.0 0.00 0.00 0.00 70 1018.6
20260506173815 59 338 4.0 11.0 0.00 0.00 0.00 69 1018.4
20260506172703 59 342 4.0 11.0 0.00 0.00 0.00 68 1018.3
20260506171805 59 335 4.0 12.0 0.00 0.00 0.00 67 1018.2
20260506170903 59 336 4.0 12.0 0.00 0.00 0.00 66 1018.2
20260506170005 60 334 5.0 10.0 0.00 0.00 0.00 66 1018.1
20260506165405 60 339 4.0 11.0 0.00 0.00 0.00 65 1017.9
20260506164506 60 318 5.0 13.0 0.00 0.00 0.00 64 1017.8
20260506163605 61 323 5.0 12.0 0.00 0.00 0.00 64 1017.7
20260506162705 61 339 3.0 11.0 0.00 0.00 0.00 64 1017.7
20260506161803 61 336 2.0 8.0 0.00 0.00 0.00 64 1017.6
20260506161118 62 318 2.0 8.0 0.00 0.00 0.00 63 1017.5
20260506160005 62 340 1.0 5.0 0.00 0.00 0.00 62 1017.4
20260506155405 63 345 2.0 8.0 0.00 0.00 0.00 61 1017.3
20260506154503 63 344 4.0 9.0 0.00 0.00 0.00 60 1017.3
20260506153605 64 348 2.0 7.0 0.00 0.00 0.00 59 1017.4
20260506152704 65 333 3.0 7.0 0.00 0.00 0.00 58 1017.4
20260506151805 65 340 3.0 10.0 0.00 0.00 0.00 57 1017.4
20260506150903 66 340 4.0 11.0 0.00 0.00 0.00 55 1017.3
20260506150004 66 346 4.0 10.0 0.00 0.00 0.00 53 1017.4
20260506145612 66 350 3.0 10.0 0.00 0.00 0.00 53 1017.4
20260506144505 67 345 3.0 9.0 0.00 0.00 0.00 53 1017.3
20260506143603 67 333 4.0 8.0 0.00 0.00 0.00 53 1017.4
20260506142703 67 345 3.0 9.0 0.00 0.00 0.00 54 1017.4
20260506141805 66 343 4.0 10.0 0.00 0.00 0.00 54 1017.4
20260506140903 67 336 4.0 8.0 0.00 0.00 0.00 54 1017.4
20260506140005 67 339 4.0 9.0 0.00 0.00 0.00 55 1017.4
20260506135405 66 339 4.0 9.0 0.00 0.00 0.00 55 1017.4
20260506134505 66 341 3.0 7.0 0.00 0.00 0.00 58 1017.4
20260506133603 65 346 2.0 7.0 0.00 0.00 0.00 59 1017.6
20260506132915 65 5 1.0 6.0 0.00 0.00 0.00 60 1017.6
20260506131804 65 340 3.0 7.0 0.00 0.00 0.00 59 1017.7
20260506130905 65 342 3.0 9.0 0.00 0.00 0.00 59 1017.8
20260506130006 66 50 1.0 5.0 0.00 0.00 0.00 58 1017.9
20260506125405 65 46 1.0 5.0 0.00 0.00 0.00 58 1018.0
20260506124716 65 36 0.0 4.0 0.00 0.00 0.00 58 1018.1
20260506123605 65 17 1.0 4.0 0.00 0.00 0.00 58 1018.1
20260506122703 66 18 1.0 4.0 0.00 0.00 0.00 57 1018.3
20260506122018 66 0 0.0 0.0 0.00 0.00 0.00 58 1018.3
20260506120903 65 19 0.0 2.0 0.00 0.00 0.00 59 1018.5
20260506120004 65 16 0.0 3.0 0.00 0.00 0.00 59 1018.5
20260506115403 65 21 0.0 5.0 0.00 0.00 0.00 59 1018.4
20260506114505 65 126 0.0 2.0 0.00 0.00 0.00 59 1018.6
20260506113606 64 0 0.0 0.0 0.00 0.00 0.00 61 1018.6
20260506112704 64 127 0.0 2.0 0.00 0.00 0.00 61 1018.7
20260506111806 64 0 0.0 0.0 0.00 0.00 0.00 62 1018.7
20260506110904 64 127 0.0 3.0 0.00 0.00 0.00 63 1018.7
20260506110007 63 124 0.0 2.0 0.00 0.00 0.00 63 1018.8
20260506105404 63 122 0.0 2.0 0.00 0.00 0.00 63 1018.8
20260506104506 63 119 1.0 5.0 0.00 0.00 0.00 63 1018.8
20260506103603 63 90 1.0 5.0 0.00 0.00 0.00 63 1018.9
20260506102917 63 106 1.0 5.0 0.00 0.00 0.00 64 1019.0
20260506102014 62 105 0.0 4.0 0.00 0.00 0.00 66 1019.1
20260506100905 62 121 0.0 2.0 0.00 0.00 0.00 65 1019.1
20260506100004 62 103 0.0 3.0 0.00 0.00 0.00 65 1019.1
20260506095405 62 90 0.0 2.0 0.00 0.00 0.00 65 1019.1
20260506094504 62 59 0.0 2.0 0.00 0.00 0.00 65 1019.2
20260506093603 62 35 1.0 4.0 0.00 0.00 0.00 65 1019.2
20260506092703 62 40 1.0 5.0 0.00 0.00 0.00 66 1019.3
20260506092015 62 62 0.0 5.0 0.00 0.00 0.00 67 1019.3
20260506091117 61 102 0.0 5.0 0.00 0.00 0.00 69 1019.3
20260506090215 60 112 0.0 2.0 0.00 0.00 0.00 70 1019.3
20260506085616 60 106 0.0 5.0 0.00 0.00 0.00 71 1019.4
20260506084719 59 106 0.0 5.0 0.00 0.00 0.00 71 1019.4
20260506083816 59 114 1.0 4.0 0.00 0.00 0.00 71 1019.4
20260506082705 59 123 1.0 4.0 0.00 0.00 0.00 71 1019.4
20260506081805 59 129 0.0 2.0 0.00 0.00 0.00 71 1019.4
20260506080905 59 131 0.0 2.0 0.00 0.00 0.00 72 1019.4
20260506070904 59 119 0.0 3.0 0.00 0.00 0.00 72 1019.2
20260506062017 61 84 0.0 6.0 0.00 0.00 0.00 68 1018.9
20260506061114 61 43 0.0 4.0 0.00 0.00 0.00 69 1018.8